M I D A S
Marine Information and Data Acquisition System
Tripno 1137 of the Zeeleeuw from 2006-07-18 07:02:39 to 2006-07-18 11:51:59
Back to CruiseResearch ActivitiesStationsMapUnderway DataData graphs

EquipmentUnitsComments
TimeDGPSUTC
LatitudeDGPSDM.mWGS84
LongitudeDGPSDM.mWGS84
SpeedMeteo Stationm/sRelative wind speed
DirectionMeteo StationdegRelative wind direction
TemperatureMeteo Stationdeg CelciusAir temperature
PressureMeteo StationPaAtmospheric pressure
HumidityMeteo Station%Relative humidity
Missing or incorrect values are displayed as -999
Metereological data collected by the RV Zeeleeuw from 2006-07-18 07:03:06 to 2006-07-18 12:03:19
                                                                                    Next 1000 lines
Time Latitude Longitude Speed Direction Temperature Pressure Humidity
2006-07-18 07:03:18 51°13.599 2°56.097 1.7 322 23.3 102110 64
2006-07-18 07:03:23 51°13.599 2°56.094 1.3 280 23.3 102110 64
2006-07-18 07:03:28 51°13.6 2°56.091 0.8 328 23.3 102110 64
2006-07-18 07:03:33 51°13.6 2°56.086 0.6 281 23.3 102110 64
2006-07-18 07:03:37 51°13.601 2°56.082 0.2 263 23.3 102110 64
2006-07-18 07:03:43 51°13.602 2°56.075 0.5 42 23.3 102110 64
2006-07-18 07:03:49 51°13.603 2°56.067 0.4 42 23.3 102110 64
2006-07-18 07:03:53 51°13.604 2°56.061 0.2 3 23.3 102110 64
2006-07-18 07:03:59 51°13.606 2°56.052 0.6 317 23.3 102110 64
2006-07-18 07:04:04 51°13.607 2°56.045 0.5 284 23.3 102110 64
2006-07-18 07:04:09 51°13.609 2°56.036 0.5 21 23.3 102110 64
2006-07-18 07:04:13 51°13.611 2°56.03 0.4 279 23.3 102110 64
2006-07-18 07:04:19 51°13.613 2°56.019 0.3 270 23.3 102110 64
2006-07-18 07:04:24 51°13.616 2°56.01 0.3 276 23.3 102110 64
2006-07-18 07:04:29 51°13.618 2°56.001 0.3 269 23.3 102120 64
2006-07-18 07:04:33 51°13.62 2°55.994 0.4 281 23.3 102120 64
2006-07-18 07:04:39 51°13.623 2°55.983 0.5 267 23.4 102110 64
2006-07-18 07:04:44 51°13.626 2°55.973 1.6 281 23.4 102110 64
2006-07-18 07:04:49 51°13.629 2°55.963 1.4 29 23.4 102110 64
2006-07-18 07:04:54 51°13.632 2°55.953 1 280 23.4 102110 64
2006-07-18 07:04:59 51°13.635 2°55.943 0.7 257 23.4 102110 64
2006-07-18 07:05:04 51°13.638 2°55.932 0.8 78 23.4 102110 64
2006-07-18 07:05:09 51°13.641 2°55.922 0.9 22 23.4 102120 64
2006-07-18 07:05:13 51°13.644 2°55.914 0.9 84 23.4 102120 64
2006-07-18 07:05:19 51°13.648 2°55.901 0.9 22 23.4 102110 64
2006-07-18 07:05:24 51°13.651 2°55.89 1 80 23.4 102110 64
2006-07-18 07:05:29 51°13.655 2°55.88 1.2 23 23.4 102110 64
2006-07-18 07:05:34 51°13.658 2°55.869 1.2 80 23.4 102110 64
2006-07-18 07:05:39 51°13.662 2°55.859 0.9 20 23.4 102110 64
2006-07-18 07:05:44 51°13.665 2°55.849 1.1 82 23.4 102110 64
2006-07-18 07:05:49 51°13.669 2°55.839 1.2 32 23.4 102110 64
2006-07-18 07:05:53 51°13.672 2°55.831 1.3 83 23.4 102110 64
2006-07-18 07:05:59 51°13.676 2°55.819 0.9 22 23.5 102110 65
2006-07-18 07:06:04 51°13.679 2°55.81 1.1 80 23.5 102110 65
2006-07-18 07:06:09 51°13.681 2°55.8 1.3 40 23.5 102110 65
2006-07-18 07:06:13 51°13.683 2°55.793 1.6 -999 23.5 102110 65
2006-07-18 07:06:19 51°13.686 2°55.783 2 262 23.5 102110 64
2006-07-18 07:06:23 51°13.688 2°55.777 1.4 276 23.5 102110 64
2006-07-18 07:06:29 51°13.691 2°55.767 1.3 253 23.5 102110 64
2006-07-18 07:06:33 51°13.692 2°55.761 1.1 283 23.5 102110 64
2006-07-18 07:06:37 51°13.694 2°55.755 1.4 35 23.5 102110 64
2006-07-18 07:06:42 51°13.695 2°55.748 0.9 276 23.5 102110 64
2006-07-18 07:06:48 51°13.697 2°55.74 1.4 43 23.5 102110 64
2006-07-18 07:06:53 51°13.698 2°55.734 1.2 282 23.5 102110 64
2006-07-18 07:06:56 51°13.699 2°55.731 1.3 270 23.5 102110 63
2006-07-18 07:07:03 51°13.701 2°55.724 0.8 279 23.5 102110 63
2006-07-18 07:07:07 51°13.701 2°55.72 1.3 24 23.6 102110 63
2006-07-18 07:07:12 51°13.701 2°55.716 1.9 284 23.6 102110 63
2006-07-18 07:07:17 51°13.702 2°55.713 2.1 31 23.6 102110 63
2006-07-18 07:07:22 51°13.702 2°55.71 2.4 284 23.6 102110 63
2006-07-18 07:07:29 51°13.703 2°55.707 2.4 319 23.6 102110 63
2006-07-18 07:07:33 51°13.703 2°55.706 2.6 284 23.6 102110 63
2006-07-18 07:07:39 51°13.704 2°55.705 2.7 321 23.6 102110 63
2006-07-18 07:07:43 51°13.704 2°55.704 2.7 282 23.6 102110 63
2006-07-18 07:07:48 51°13.704 2°55.704 2.4 330 23.6 102110 63
2006-07-18 07:07:53 51°13.705 2°55.705 2.6 285 23.6 102110 63
2006-07-18 07:07:58 51°13.706 2°55.706 3 341 23.6 102110 63
2006-07-18 07:08:03 51°13.706 2°55.706 2.8 282 23.6 102110 63
2006-07-18 07:08:08 51°13.707 2°55.708 2.6 342 23.6 102110 62
2006-07-18 07:08:13 51°13.708 2°55.709 2.5 286 23.6 102110 62
2006-07-18 07:08:18 51°13.71 2°55.709 2 343 23.7 102110 62
2006-07-18 07:08:23 51°13.711 2°55.711 2.4 278 23.7 102110 62
2006-07-18 07:08:28 51°13.713 2°55.712 2.1 354 23.6 102110 62
2006-07-18 07:08:32 51°13.714 2°55.713 2.8 354 23.6 102110 62
2006-07-18 07:08:37 51°13.717 2°55.714 2.5 359 23.6 102110 61
2006-07-18 07:08:41 51°13.719 2°55.715 2.9 357 23.6 102110 61
2006-07-18 07:08:48 51°13.724 2°55.716 2.3 -999 23.6 102110 61
2006-07-18 07:08:52 51°13.727 2°55.716 2.3 2 23.6 102110 61
2006-07-18 07:08:58 51°13.733 2°55.715 2 4 23.6 102110 61
2006-07-18 07:09:03 51°13.737 2°55.713 2.1 352 23.6 102110 61
2006-07-18 07:09:08 51°13.743 2°55.711 2.3 359 23.6 102110 61
2006-07-18 07:09:13 51°13.748 2°55.707 2.4 357 23.6 102110 61
2006-07-18 07:09:18 51°13.754 2°55.703 2.3 355 23.5 102110 61
2006-07-18 07:09:23 51°13.759 2°55.698 2.7 352 23.5 102110 61
2006-07-18 07:09:28 51°13.766 2°55.692 2.8 3 23.5 102110 62
2006-07-18 07:09:33 51°13.772 2°55.687 2.4 279 23.5 102110 62
2006-07-18 07:09:36 51°13.776 2°55.683 2.5 344 23.5 102110 62
2006-07-18 07:09:42 51°13.784 2°55.676 2.6 351 23.5 102110 62
2006-07-18 07:09:48 51°13.793 2°55.669 3.5 350 23.4 102110 62
2006-07-18 07:09:53 51°13.801 2°55.663 3.8 352 23.4 102110 62
2006-07-18 07:09:57 51°13.807 2°55.658 3.4 344 23.4 102110 62
2006-07-18 07:10:01 51°13.813 2°55.653 3.2 276 23.4 102110 62
2006-07-18 07:10:08 51°13.824 2°55.643 2.6 334 23.4 102110 62
2006-07-18 07:10:13 51°13.832 2°55.637 3 279 23.4 102110 62
2006-07-18 07:10:17 51°13.839 2°55.632 4.1 345 23.4 102110 62
2006-07-18 07:10:23 51°13.849 2°55.624 4 283 23.4 102110 62
2006-07-18 07:10:28 51°13.858 2°55.617 3.6 341 23.4 102110 63
2006-07-18 07:10:32 51°13.865 2°55.612 4 280 23.4 102110 63
2006-07-18 07:10:36 51°13.872 2°55.606 4.9 345 23.4 102110 63
2006-07-18 07:10:43 51°13.884 2°55.597 4.7 277 23.4 102110 63
2006-07-18 07:10:47 51°13.891 2°55.592 4.7 352 23.3 102110 63
2006-07-18 07:10:53 51°13.902 2°55.583 2.6 351 23.3 102110 63
2006-07-18 07:10:58 51°13.911 2°55.576 4.1 350 23.3 102110 63
2006-07-18 07:11:03 51°13.92 2°55.569 4.2 282 23.3 102110 63
2006-07-18 07:11:08 51°13.929 2°55.562 4.5 354 23.3 102110 63
2006-07-18 07:11:13 51°13.938 2°55.555 4.4 355 23.3 102110 63
2006-07-18 07:11:18 51°13.947 2°55.548 4.9 355 23.3 102110 62
2006-07-18 07:11:23 51°13.956 2°55.541 4.5 356 23.3 102110 62
2006-07-18 07:11:28 51°13.966 2°55.534 4.4 350 23.2 102110 61
2006-07-18 07:11:32 51°13.973 2°55.529 3.8 356 23.2 102110 61
2006-07-18 07:11:37 51°13.983 2°55.522 3.8 349 23.2 102110 60
2006-07-18 07:11:41 51°13.99 2°55.517 3.7 278 23.2 102110 60
2006-07-18 07:11:48 51°14.003 2°55.507 3.5 345 23.1 102110 60
2006-07-18 07:11:53 51°14.012 2°55.5 3.8 280 23.1 102110 60
2006-07-18 07:11:57 51°14.019 2°55.495 3.8 345 23.1 102110 61
2006-07-18 07:12:02 51°14.027 2°55.489 3.3 279 23.1 102110 61
2006-07-18 07:12:07 51°14.036 2°55.483 3.2 349 23.1 102120 61
2006-07-18 07:12:13 51°14.046 2°55.476 2.9 355 23.1 102120 61
2006-07-18 07:12:17 51°14.052 2°55.472 2.3 351 23.1 102110 62
2006-07-18 07:12:20 51°14.057 2°55.469 2.5 276 23.1 102110 62
2006-07-18 07:12:28 51°14.07 2°55.46 2.7 343 23.1 102120 62
2006-07-18 07:12:33 51°14.078 2°55.454 3.5 277 23.1 102120 62
2006-07-18 07:12:38 51°14.086 2°55.449 3.4 350 23.1 102120 62
2006-07-18 07:12:43 51°14.094 2°55.443 3.4 279 23.1 102120 62
2006-07-18 07:12:48 51°14.102 2°55.437 3.6 348 23.1 102110 62
2006-07-18 07:12:53 51°14.11 2°55.431 2.9 350 23.1 102110 62
2006-07-18 07:12:56 51°14.114 2°55.427 2.9 351 23.1 102120 62
2006-07-18 07:13:02 51°14.124 2°55.42 3.3 278 23.1 102120 62
2006-07-18 07:13:08 51°14.134 2°55.412 4.3 348 23.1 102110 62
2006-07-18 07:13:13 51°14.142 2°55.405 4.6 277 23.1 102110 62
2006-07-18 07:13:17 51°14.148 2°55.399 4.4 345 23.1 102120 62
2006-07-18 07:13:23 51°14.158 2°55.389 4.1 277 23.1 102120 62
2006-07-18 07:13:28 51°14.166 2°55.382 4.2 345 23.1 102120 63
2006-07-18 07:13:33 51°14.174 2°55.373 4.7 277 23.1 102120 63
2006-07-18 07:13:38 51°14.182 2°55.365 4.8 344 23.1 102110 63
2006-07-18 07:13:43 51°14.19 2°55.356 4.1 279 23.1 102110 63
2006-07-18 07:13:48 51°14.198 2°55.346 4.2 351 23.1 102120 63
2006-07-18 07:13:53 51°14.206 2°55.337 3.9 283 23.1 102120 63
2006-07-18 07:13:58 51°14.214 2°55.327 4.6 345 23.1 102120 63
2006-07-18 07:14:03 51°14.222 2°55.316 4.1 279 23.1 102120 63
2006-07-18 07:14:07 51°14.229 2°55.307 4.4 345 23.1 102110 63
2006-07-18 07:14:12 51°14.237 2°55.295 4.7 278 23.1 102110 63
2006-07-18 07:14:17 51°14.246 2°55.282 5 344 23.1 102120 64
2006-07-18 07:14:20 51°14.251 2°55.274 4.9 284 23.1 102120 64
2006-07-18 07:14:28 51°14.265 2°55.251 4.7 343 23.1 102110 64
2006-07-18 07:14:32 51°14.272 2°55.24 4.7 284 23.1 102110 64
2006-07-18 07:14:37 51°14.281 2°55.225 5.4 341 23.1 102120 65
2006-07-18 07:14:42 51°14.289 2°55.209 5.6 283 23.1 102120 65
2006-07-18 07:14:48 51°14.3 2°55.191 5.5 341 23 102120 67
2006-07-18 07:14:53 51°14.308 2°55.175 5.7 285 23 102120 67
2006-07-18 07:14:57 51°14.315 2°55.162 5.5 341 23 102110 68
2006-07-18 07:15:03 51°14.325 2°55.142 5.5 279 23 102110 68
2006-07-18 07:15:08 51°14.334 2°55.125 3.3 339 23 102110 69
2006-07-18 07:15:12 51°14.34 2°55.111 5.1 282 23 102110 69
2006-07-18 07:15:17 51°14.349 2°55.094 5.9 344 23 102120 70
2006-07-18 07:15:22 51°14.357 2°55.077 5.5 284 23 102120 70
2006-07-18 07:15:27 51°14.364 2°55.059 5.4 345 23 102110 70
2006-07-18 07:15:32 51°14.372 2°55.041 5.9 281 23 102110 70
2006-07-18 07:15:36 51°14.379 2°55.027 5.8 347 22.9 102120 71
2006-07-18 07:15:42 51°14.389 2°55.007 6.2 347 22.9 102120 71
2006-07-18 07:15:48 51°14.399 2°54.987 5.6 347 22.9 102110 71
2006-07-18 07:15:53 51°14.408 2°54.971 5.9 348 22.9 102110 71
2006-07-18 07:15:57 51°14.415 2°54.957 5.5 349 22.8 102110 71
2006-07-18 07:16:00 51°14.421 2°54.948 5.5 350 22.8 102110 71
2006-07-18 07:16:08 51°14.434 2°54.922 5.6 349 22.7 102110 71
2006-07-18 07:16:13 51°14.442 2°54.905 5.4 280 22.7 102110 71
2006-07-18 07:16:18 51°14.45 2°54.888 5.6 349 22.6 102110 72
2006-07-18 07:16:23 51°14.458 2°54.87 5.1 277 22.6 102110 72
2006-07-18 07:16:28 51°14.466 2°54.853 5.3 350 22.5 102110 72
2006-07-18 07:16:33 51°14.475 2°54.836 5.2 350 22.5 102110 72
2006-07-18 07:16:37 51°14.481 2°54.822 5.2 351 22.5 102110 73
2006-07-18 07:16:42 51°14.488 2°54.804 5.2 351 22.5 102110 73
2006-07-18 07:16:47 51°14.496 2°54.786 5.5 351 22.4 102110 73
2006-07-18 07:16:53 51°14.505 2°54.763 5.2 277 22.4 102110 73
2006-07-18 07:16:57 51°14.51 2°54.747 5.1 352 22.3 102110 74
2006-07-18 07:17:03 51°14.518 2°54.723 5.5 353 22.3 102110 74
2006-07-18 07:17:07 51°14.524 2°54.706 5.3 350 22.3 102110 74
2006-07-18 07:17:12 51°14.53 2°54.685 5.2 351 22.3 102110 74
2006-07-18 07:17:18 51°14.538 2°54.66 5.4 350 22.2 102110 75
2006-07-18 07:17:23 51°14.544 2°54.638 5.5 278 22.2 102110 75
2006-07-18 07:17:27 51°14.549 2°54.62 5.6 348 22.1 102120 75
2006-07-18 07:17:33 51°14.558 2°54.594 5.7 350 22.1 102120 75
2006-07-18 07:17:37 51°14.563 2°54.576 5.9 350 22.1 102110 76
2006-07-18 07:17:43 51°14.572 2°54.549 6.2 278 22.1 102110 76
2006-07-18 07:17:47 51°14.578 2°54.532 6.2 349 22 102110 76
2006-07-18 07:17:52 51°14.585 2°54.509 6.2 276 22 102110 76
2006-07-18 07:17:57 51°14.593 2°54.487 6.2 347 22 102110 76
2006-07-18 07:18:02 51°14.601 2°54.465 6.2 349 22 102110 76
2006-07-18 07:18:08 51°14.61 2°54.438 6.4 348 22 102110 77
2006-07-18 07:18:13 51°14.618 2°54.415 6.5 280 22 102110 77
2006-07-18 07:18:17 51°14.625 2°54.397 6.3 347 21.9 102110 77
2006-07-18 07:18:23 51°14.635 2°54.371 7.1 349 21.9 102110 77
2006-07-18 07:18:28 51°14.644 2°54.349 6.9 350 21.9 102110 78
2006-07-18 07:18:32 51°14.651 2°54.331 6.9 277 21.9 102110 78
2006-07-18 07:18:37 51°14.66 2°54.309 7 350 21.9 102110 79
2006-07-18 07:18:42 51°14.669 2°54.286 6.5 350 21.9 102110 79
2006-07-18 07:18:48 51°14.679 2°54.26 6.8 350 21.8 102110 79
2006-07-18 07:18:52 51°14.686 2°54.242 6.4 350 21.8 102110 79
2006-07-18 07:18:56 51°14.694 2°54.225 6.4 350 21.7 102110 79
2006-07-18 07:19:02 51°14.705 2°54.198 6.6 348 21.7 102110 79
2006-07-18 07:19:07 51°14.713 2°54.176 6.4 351 21.7 102110 79
2006-07-18 07:19:13 51°14.724 2°54.15 6.4 277 21.7 102110 79
2006-07-18 07:19:18 51°14.733 2°54.128 6.3 351 21.7 102110 79
2006-07-18 07:19:23 51°14.741 2°54.105 6.2 351 21.7 102110 79
2006-07-18 07:19:28 51°14.75 2°54.083 6.1 352 21.6 102110 79
2006-07-18 07:19:32 51°14.757 2°54.065 6.2 279 21.6 102110 79
2006-07-18 07:19:38 51°14.767 2°54.038 5.9 349 21.6 102110 80
2006-07-18 07:19:43 51°14.776 2°54.015 6 280 21.6 102110 80
2006-07-18 07:19:46 51°14.782 2°54.002 6.3 350 21.6 102110 80
2006-07-18 07:19:52 51°14.793 2°53.975 6.2 278 21.6 102110 80
2006-07-18 07:19:57 51°14.802 2°53.952 6.3 351 21.5 102110 80
2006-07-18 07:20:03 51°14.812 2°53.925 5.8 278 21.5 102110 80
2006-07-18 07:20:08 51°14.821 2°53.902 5.8 351 21.5 102110 80
2006-07-18 07:20:13 51°14.829 2°53.879 6 278 21.5 102110 80
2006-07-18 07:20:17 51°14.836 2°53.861 5.8 350 21.5 102110 81
2006-07-18 07:20:22 51°14.844 2°53.837 5.7 350 21.5 102110 81
2006-07-18 07:20:26 51°14.849 2°53.818 5.7 350 21.5 102110 81
2006-07-18 07:20:32 51°14.857 2°53.789 5.4 279 21.5 102110 81
2006-07-18 07:20:37 51°14.864 2°53.765 5.4 350 21.5 102110 81
2006-07-18 07:20:42 51°14.87 2°53.741 5.3 277 21.5 102110 81
2006-07-18 07:20:47 51°14.877 2°53.716 5.6 351 21.4 102110 81
2006-07-18 07:20:53 51°14.884 2°53.687 5.5 279 21.4 102110 81
2006-07-18 07:20:56 51°14.888 2°53.673 5.8 350 21.4 102110 82
2006-07-18 07:21:02 51°14.895 2°53.643 5.9 276 21.4 102110 82
2006-07-18 07:21:06 51°14.9 2°53.624 6 349 21.4 102110 82
2006-07-18 07:21:13 51°14.91 2°53.59 6 278 21.4 102110 82
2006-07-18 07:21:18 51°14.918 2°53.567 5.6 349 21.3 102110 82
2006-07-18 07:21:23 51°14.926 2°53.543 6.6 279 21.3 102110 82
2006-07-18 07:21:28 51°14.934 2°53.52 6 351 21.3 102110 82
2006-07-18 07:21:32 51°14.941 2°53.502 6.4 279 21.3 102110 82
2006-07-18 07:21:38 51°14.952 2°53.474 6.3 350 21.3 102110 82
2006-07-18 07:21:43 51°14.961 2°53.452 6.5 277 21.3 102110 82
2006-07-18 07:21:48 51°14.97 2°53.429 6.1 349 21.3 102110 82
2006-07-18 07:21:53 51°14.978 2°53.406 6.2 351 21.3 102110 82
2006-07-18 07:21:57 51°14.985 2°53.388 6 350 21.3 102110 82
2006-07-18 07:22:01 51°14.991 2°53.369 6.3 276 21.3 102110 82
2006-07-18 07:22:07 51°15.001 2°53.341 6.1 348 21.3 102110 82
2006-07-18 07:22:12 51°15.009 2°53.317 6.1 276 21.3 102110 82
2006-07-18 07:22:17 51°15.016 2°53.294 5.7 348 21.3 102110 82
2006-07-18 07:22:20 51°15.021 2°53.279 6.2 279 21.3 102110 82
2006-07-18 07:22:28 51°15.032 2°53.241 5.8 349 21.3 102120 83
2006-07-18 07:22:33 51°15.039 2°53.217 5.8 351 21.3 102120 83
2006-07-18 07:22:37 51°15.045 2°53.197 5.9 348 21.3 102110 83
2006-07-18 07:22:42 51°15.052 2°53.173 5.7 351 21.3 102110 83
2006-07-18 07:22:48 51°15.061 2°53.144 5.8 349 21.2 102110 83
2006-07-18 07:22:53 51°15.069 2°53.12 6.4 276 21.2 102110 83
2006-07-18 07:22:58 51°15.077 2°53.097 5.9 350 21.2 102110 83
2006-07-18 07:23:03 51°15.085 2°53.073 6.1 279 21.2 102110 83
2006-07-18 07:23:08 51°15.094 2°53.05 6.5 348 21.2 102110 82
2006-07-18 07:23:13 51°15.102 2°53.026 5.9 280 21.2 102110 82
2006-07-18 07:23:17 51°15.108 2°53.007 6 351 21.2 102120 82
2006-07-18 07:23:22 51°15.117 2°52.983 5.9 276 21.2 102120 82
2006-07-18 07:23:28 51°15.126 2°52.955 5.6 350 21.2 102110 82
2006-07-18 07:23:33 51°15.134 2°52.931 5.7 351 21.2 102110 82
2006-07-18 07:23:38 51°15.141 2°52.907 5.8 349 21.2 102110 82
2006-07-18 07:23:43 51°15.148 2°52.883 5.6 277 21.2 102110 82
2006-07-18 07:23:48 51°15.156 2°52.859 5.4 348 21.2 102120 82
2006-07-18 07:23:52 51°15.161 2°52.839 5.7 276 21.2 102120 82
2006-07-18 07:23:58 51°15.17 2°52.81 5.7 350 21.2 102120 83
2006-07-18 07:24:02 51°15.176 2°52.791 6 278 21.2 102120 83
2006-07-18 07:24:08 51°15.185 2°52.762 6 351 21.2 102120 82
2006-07-18 07:24:13 51°15.192 2°52.738 6.1 279 21.2 102120 82
2006-07-18 07:24:17 51°15.198 2°52.719 6.2 352 21.2 102120 83
2006-07-18 07:24:20 51°15.202 2°52.704 5.9 276 21.2 102120 83
2006-07-18 07:24:28 51°15.214 2°52.666 5.9 350 21.2 102120 82
2006-07-18 07:24:33 51°15.222 2°52.642 5.9 280 21.2 102120 82
2006-07-18 07:24:38 51°15.229 2°52.618 5.7 348 21.2 102120 83
2006-07-18 07:24:43 51°15.237 2°52.595 5.9 278 21.2 102120 83
2006-07-18 07:24:48 51°15.244 2°52.571 6 350 21.2 102120 83
2006-07-18 07:24:53 51°15.252 2°52.547 6.2 277 21.2 102120 83
2006-07-18 07:24:56 51°15.257 2°52.533 5.8 349 21.2 102120 83
2006-07-18 07:25:02 51°15.266 2°52.504 5.9 350 21.2 102120 83
2006-07-18 07:25:08 51°15.275 2°52.476 5.8 350 21.2 102120 83
2006-07-18 07:25:13 51°15.283 2°52.452 5.7 352 21.2 102120 83
2006-07-18 07:25:17 51°15.289 2°52.434 6.1 349 21.2 102120 83
2006-07-18 07:25:22 51°15.296 2°52.41 5.7 279 21.2 102120 83
2006-07-18 07:25:28 51°15.305 2°52.381 5.6 347 21.2 102120 83
2006-07-18 07:25:32 51°15.311 2°52.362 5.8 277 21.2 102120 83
2006-07-18 07:25:36 51°15.317 2°52.343 5.8 350 21.2 102120 83
2006-07-18 07:25:43 51°15.327 2°52.31 5.5 279 21.2 102120 83
2006-07-18 07:25:48 51°15.335 2°52.286 5.7 347 21.2 102120 83
2006-07-18 07:25:53 51°15.342 2°52.262 5.4 279 21.2 102120 83
2006-07-18 07:25:58 51°15.35 2°52.238 5.5 347 21.2 102120 83
2006-07-18 07:26:03 51°15.357 2°52.215 5.4 349 21.2 102120 83
2006-07-18 07:26:08 51°15.364 2°52.191 5.5 348 21.2 102120 83
2006-07-18 07:26:13 51°15.371 2°52.167 5.4 277 21.2 102120 83
2006-07-18 07:26:17 51°15.377 2°52.147 5.3 348 21.2 102120 83
2006-07-18 07:26:22 51°15.383 2°52.123 5.3 280 21.2 102120 83
2006-07-18 07:26:26 51°15.389 2°52.103 5.2 347 21.2 102120 83
2006-07-18 07:26:32 51°15.396 2°52.074 5.4 276 21.2 102120 83
2006-07-18 07:26:37 51°15.403 2°52.049 5.3 348 21.2 102120 83
2006-07-18 07:26:43 51°15.411 2°52.02 5.6 278 21.2 102120 83
2006-07-18 07:26:48 51°15.418 2°51.996 5.6 346 21.3 102120 83
2006-07-18 07:26:52 51°15.423 2°51.977 5.6 276 21.3 102120 83
2006-07-18 07:26:57 51°15.431 2°51.952 5.6 349 21.3 102120 84
2006-07-18 07:27:02 51°15.438 2°51.928 5.8 277 21.3 102120 84
2006-07-18 07:27:08 51°15.447 2°51.9 5.8 346 21.3 102120 84
2006-07-18 07:27:12 51°15.452 2°51.88 5.6 -999 21.3 102120 84
2006-07-18 07:27:18 51°15.46 2°51.851 5.3 348 21.3 102120 85
2006-07-18 07:27:23 51°15.466 2°51.827 5.2 281 21.3 102120 85
2006-07-18 07:27:28 51°15.473 2°51.803 5.5 346 21.3 102120 85
2006-07-18 07:27:33 51°15.479 2°51.778 5.1 349 21.3 102120 85
2006-07-18 07:27:36 51°15.482 2°51.763 5.3 346 21.3 102120 85
2006-07-18 07:27:43 51°15.489 2°51.729 4.9 280 21.3 102120 85
2006-07-18 07:27:47 51°15.494 2°51.709 5.2 346 21.4 102120 86
2006-07-18 07:27:53 51°15.5 2°51.679 4.8 284 21.4 102120 86
2006-07-18 07:27:58 51°15.506 2°51.654 5.3 348 21.4 102120 86
2006-07-18 07:28:03 51°15.511 2°51.63 4.8 278 21.4 102120 86
2006-07-18 07:28:08 51°15.516 2°51.605 4.9 347 21.4 102120 86
2006-07-18 07:28:13 51°15.522 2°51.58 4.9 280 21.4 102120 86
2006-07-18 07:28:17 51°15.526 2°51.56 4.9 348 21.4 102120 87
2006-07-18 07:28:22 51°15.532 2°51.536 5.4 349 21.4 102120 87
2006-07-18 07:28:28 51°15.54 2°51.507 5.1 349 21.4 102120 87
2006-07-18 07:28:33 51°15.546 2°51.482 4.7 278 21.4 102120 87
2006-07-18 07:28:36 51°15.55 2°51.468 4.9 349 21.4 102120 88
2006-07-18 07:28:43 51°15.56 2°51.434 5.2 350 21.4 102120 88
2006-07-18 07:28:48 51°15.567 2°51.41 5 350 21.4 102120 88
2006-07-18 07:28:52 51°15.573 2°51.39 5.3 281 21.4 102120 88
2006-07-18 07:28:58 51°15.582 2°51.361 4.9 351 21.4 102120 88
2006-07-18 07:29:03 51°15.589 2°51.337 5 278 21.4 102120 88
2006-07-18 07:29:07 51°15.595 2°51.318 5.1 352 21.3 102120 88
2006-07-18 07:29:13 51°15.603 2°51.289 5.1 349 21.3 102120 88
2006-07-18 07:29:17 51°15.609 2°51.27 5.3 352 21.3 102120 88
2006-07-18 07:29:23 51°15.617 2°51.24 5.1 278 21.3 102120 88
2006-07-18 07:29:28 51°15.624 2°51.216 5.3 350 21.3 102110 89
2006-07-18 07:29:33 51°15.631 2°51.191 5.1 351 21.3 102110 89
2006-07-18 07:29:38 51°15.638 2°51.167 5.6 350 21.3 102120 89
2006-07-18 07:29:43 51°15.645 2°51.142 5.3 350 21.3 102120 89
2006-07-18 07:29:48 51°15.652 2°51.118 5.4 350 21.3 102120 89
2006-07-18 07:29:53 51°15.659 2°51.093 5.7 348 21.3 102120 89
2006-07-18 07:29:57 51°15.664 2°51.074 5.8 349 21.3 102120 89
2006-07-18 07:30:02 51°15.672 2°51.049 5.6 279 21.3 102120 89
2006-07-18 07:30:07 51°15.679 2°51.025 5.5 352 21.3 102120 90
2006-07-18 07:30:12 51°15.686 2°51 5.5 280 21.3 102120 90
2006-07-18 07:30:18 51°15.694 2°50.971 5.7 350 21.3 102120 90
2006-07-18 07:30:23 51°15.701 2°50.946 5.4 351 21.3 102120 90
2006-07-18 07:30:26 51°15.705 2°50.932 5.6 352 21.3 102120 90
2006-07-18 07:30:33 51°15.715 2°50.898 5.6 277 21.3 102120 90
2006-07-18 07:30:38 51°15.722 2°50.873 5.6 349 21.3 102120 90
2006-07-18 07:30:43 51°15.729 2°50.849 5.2 349 21.3 102120 90
2006-07-18 07:30:48 51°15.736 2°50.824 5.6 351 21.2 102120 90
2006-07-18 07:30:52 51°15.742 2°50.805 5.6 279 21.2 102120 90
2006-07-18 07:30:58 51°15.75 2°50.775 5.6 351 21.2 102120 91
2006-07-18 07:31:03 51°15.757 2°50.751 5.2 348 21.2 102120 91
2006-07-18 07:31:08 51°15.765 2°50.727 5.3 352 21.2 102120 91
2006-07-18 07:31:13 51°15.771 2°50.702 5.3 277 21.2 102120 91
2006-07-18 07:31:17 51°15.777 2°50.683 5.5 352 21.2 102120 91
2006-07-18 07:31:22 51°15.784 2°50.658 5.6 276 21.2 102120 91
2006-07-18 07:31:28 51°15.792 2°50.629 5.3 350 21.2 102120 91
2006-07-18 07:31:33 51°15.799 2°50.605 5.4 278 21.2 102120 91
2006-07-18 07:31:36 51°15.803 2°50.59 5.5 352 21.1 102120 91
2006-07-18 07:31:43 51°15.813 2°50.556 5.3 277 21.1 102120 91
2006-07-18 07:31:47 51°15.819 2°50.537 5 350 21.1 102120 91
2006-07-18 07:31:53 51°15.828 2°50.508 5.4 278 21.1 102120 91
2006-07-18 07:31:58 51°15.835 2°50.483 5.5 349 21.1 102120 91
2006-07-18 07:32:03 51°15.842 2°50.459 5.3 280 21.1 102120 91
2006-07-18 07:32:08 51°15.849 2°50.434 5.6 347 21.1 102120 92
2006-07-18 07:32:13 51°15.855 2°50.41 5.3 348 21.1 102120 92
2006-07-18 07:32:17 51°15.861 2°50.391 5.3 346 21.1 102120 92
2006-07-18 07:32:22 51°15.868 2°50.366 5.9 281 21.1 102120 92
2006-07-18 07:32:28 51°15.877 2°50.337 5.7 348 21.1 102120 92
2006-07-18 07:32:33 51°15.884 2°50.313 5.2 277 21.1 102120 92
2006-07-18 07:32:36 51°15.888 2°50.299 5.6 350 21.1 102120 92
2006-07-18 07:32:43 51°15.898 2°50.265 6.1 347 21.1 102120 92
2006-07-18 07:32:48 51°15.905 2°50.241 5.6 348 21.1 102120 92
2006-07-18 07:32:52 51°15.91 2°50.221 5.4 279 21.1 102120 92
2006-07-18 07:32:58 51°15.918 2°50.192 5.3 350 21.1 102120 92
2006-07-18 07:33:03 51°15.924 2°50.168 5.1 348 21.1 102120 92
2006-07-18 07:33:08 51°15.93 2°50.143 5.1 348 21.1 102120 92
2006-07-18 07:33:13 51°15.936 2°50.119 5 277 21.1 102120 92
2006-07-18 07:33:18 51°15.942 2°50.094 5.3 350 21.1 102120 92
2006-07-18 07:33:23 51°15.948 2°50.07 5.1 346 21.1 102120 92
2006-07-18 07:33:28 51°15.955 2°50.045 5.3 349 21 102120 92
2006-07-18 07:33:32 51°15.96 2°50.025 5.4 349 21 102120 92
2006-07-18 07:33:37 51°15.966 2°50.001 5.2 347 21 102120 92
2006-07-18 07:33:41 51°15.971 2°49.981 5.7 278 21 102120 92
2006-07-18 07:33:47 51°15.979 2°49.952 5.3 348 21 102120 93
2006-07-18 07:33:53 51°15.987 2°49.922 5.4 278 21 102120 93
2006-07-18 07:33:56 51°15.991 2°49.907 5.1 348 21.1 102120 93
2006-07-18 07:34:02 51°15.999 2°49.877 5.5 278 21.1 102120 93
2006-07-18 07:34:06 51°16.004 2°49.857 5 347 21 102120 93
2006-07-18 07:34:12 51°16.011 2°49.827 5.4 283 21 102120 93
2006-07-18 07:34:17 51°16.018 2°49.803 5.6 349 20.9 102120 93
2006-07-18 07:34:23 51°16.026 2°49.773 5.3 348 20.9 102120 93
2006-07-18 07:34:28 51°16.032 2°49.748 5.3 347 20.9 102120 93
2006-07-18 07:34:32 51°16.038 2°49.728 5.6 278 20.9 102120 93
2006-07-18 07:34:38 51°16.046 2°49.698 5.3 348 20.9 102120 93
2006-07-18 07:34:43 51°16.052 2°49.674 5.2 349 20.9 102120 93
2006-07-18 07:34:48 51°16.059 2°49.649 5.6 347 20.9 102120 93
2006-07-18 07:34:53 51°16.066 2°49.624 5.3 278 20.9 102120 93
2006-07-18 07:34:57 51°16.071 2°49.605 5.8 347 20.9 102120 93
2006-07-18 07:35:02 51°16.078 2°49.58 5.1 349 20.9 102120 93
2006-07-18 07:35:08 51°16.086 2°49.551 5.5 347 20.9 102120 93
2006-07-18 07:35:13 51°16.093 2°49.526 5.4 279 20.9 102120 93
2006-07-18 07:35:17 51°16.099 2°49.506 5.4 347 20.9 102120 93
2006-07-18 07:35:22 51°16.106 2°49.482 5.3 279 20.9 102120 93
2006-07-18 07:35:27 51°16.112 2°49.457 5.3 347 20.9 102120 93
2006-07-18 07:35:32 51°16.119 2°49.433 5.2 349 20.9 102120 93
2006-07-18 07:35:38 51°16.127 2°49.403 5.3 348 20.8 102120 94
2006-07-18 07:35:42 51°16.132 2°49.383 5.6 279 20.8 102120 94
2006-07-18 07:35:48 51°16.14 2°49.354 5.3 347 20.8 102120 94
2006-07-18 07:35:53 51°16.147 2°49.329 5.1 281 20.8 102120 94
2006-07-18 07:35:57 51°16.152 2°49.309 5.1 350 20.8 102120 94
2006-07-18 07:36:02 51°16.158 2°49.285 5.3 278 20.8 102120 94
2006-07-18 07:36:07 51°16.165 2°49.26 5.4 350 20.8 102120 94
2006-07-18 07:36:12 51°16.172 2°49.235 5.1 276 20.8 102120 94
2006-07-18 07:36:17 51°16.178 2°49.211 5.1 350 20.8 102120 94
2006-07-18 07:36:23 51°16.187 2°49.182 5.4 349 20.8 102120 94
2006-07-18 07:36:28 51°16.193 2°49.157 5.3 350 20.8 102120 94
2006-07-18 07:36:33 51°16.2 2°49.133 5.3 277 20.8 102120 94
2006-07-18 07:36:38 51°16.206 2°49.108 4.8 352 20.8 102120 94
2006-07-18 07:36:43 51°16.212 2°49.083 5.1 278 20.8 102120 94
2006-07-18 07:36:48 51°16.217 2°49.058 4.8 350 20.8 102120 94
2006-07-18 07:36:52 51°16.221 2°49.038 4.9 352 20.8 102120 94
2006-07-18 07:36:57 51°16.226 2°49.013 5 351 20.8 102120 94
2006-07-18 07:37:01 51°16.23 2°48.993 4.8 350 20.8 102120 94
2006-07-18 07:37:08 51°16.237 2°48.958 5 352 20.8 102120 94
2006-07-18 07:37:12 51°16.241 2°48.938 5.2 276 20.8 102120 94
2006-07-18 07:37:17 51°16.246 2°48.912 4.9 352 20.8 102120 94
2006-07-18 07:37:21 51°16.25 2°48.892 5 351 20.8 102120 94
2006-07-18 07:37:27 51°16.257 2°48.863 5.3 352 20.8 102120 94
2006-07-18 07:37:33 51°16.264 2°48.833 5.7 351 20.8 102120 94
2006-07-18 07:37:38 51°16.27 2°48.808 5.3 351 20.7 102120 94
2006-07-18 07:37:43 51°16.277 2°48.784 5.3 278 20.7 102120 94
2006-07-18 07:37:48 51°16.283 2°48.759 5.6 353 20.7 102120 94
2006-07-18 07:37:53 51°16.29 2°48.735 5.6 352 20.7 102120 94
2006-07-18 07:37:57 51°16.295 2°48.716 5.9 353 20.7 102120 94
2006-07-18 07:38:02 51°16.302 2°48.692 5.2 278 20.7 102120 94
2006-07-18 07:38:08 51°16.311 2°48.663 5.6 351 20.7 102120 94
2006-07-18 07:38:12 51°16.317 2°48.644 5.5 352 20.7 102120 94
2006-07-18 07:38:17 51°16.324 2°48.62 5.5 352 20.7 102120 94
2006-07-18 07:38:23 51°16.333 2°48.592 5.4 353 20.7 102120 94
2006-07-18 07:38:28 51°16.34 2°48.568 6 352 20.7 102120 94
2006-07-18 07:38:33 51°16.348 2°48.544 5.7 353 20.7 102120 94
2006-07-18 07:38:38 51°16.355 2°48.52 5.7 352 20.7 102120 95
2006-07-18 07:38:43 51°16.362 2°48.497 5.7 350 20.7 102120 95
2006-07-18 07:38:48 51°16.368 2°48.473 5.7 352 20.7 102120 95
2006-07-18 07:38:53 51°16.376 2°48.449 5.6 352 20.7 102120 95
2006-07-18 07:38:57 51°16.381 2°48.429 5.5 351 20.7 102120 95
2006-07-18 07:39:02 51°16.388 2°48.405 5.6 353 20.7 102120 95
2006-07-18 07:39:08 51°16.397 2°48.377 5.4 351 20.7 102120 95
2006-07-18 07:39:13 51°16.404 2°48.353 5.4 353 20.7 102120 95
2006-07-18 07:39:17 51°16.409 2°48.333 5.9 353 20.7 102120 95
2006-07-18 07:39:23 51°16.418 2°48.305 5.5 353 20.7 102120 95
2006-07-18 07:39:28 51°16.425 2°48.281 5.6 353 20.7 102120 95
2006-07-18 07:39:32 51°16.431 2°48.262 5.4 352 20.7 102120 95
2006-07-18 07:39:37 51°16.438 2°48.238 3.3 353 20.7 102120 95
2006-07-18 07:39:43 51°16.446 2°48.21 5.5 277 20.7 102120 95
2006-07-18 07:39:47 51°16.452 2°48.191 5.7 355 20.7 102120 95
2006-07-18 07:39:53 51°16.461 2°48.162 5.3 354 20.7 102120 95
2006-07-18 07:39:58 51°16.469 2°48.138 5.7 353 20.7 102120 95
2006-07-18 07:40:03 51°16.476 2°48.114 5.5 354 20.7 102120 95
2006-07-18 07:40:08 51°16.483 2°48.091 5.4 352 20.7 102120 95
2006-07-18 07:40:13 51°16.49 2°48.068 5.6 278 20.7 102120 95
2006-07-18 07:40:17 51°16.497 2°48.049 6 353 20.7 102120 95
2006-07-18 07:40:22 51°16.504 2°48.026 5.7 354 20.7 102120 95
2006-07-18 07:40:28 51°16.513 2°47.998 5.8 353 20.6 102120 95
2006-07-18 07:40:33 51°16.521 2°47.974 5.5 352 20.6 102120 95
2006-07-18 07:40:37 51°16.526 2°47.955 5.5 351 20.7 102120 95
2006-07-18 07:40:43 51°16.535 2°47.927 5.5 351 20.7 102120 95
2006-07-18 07:40:48 51°16.541 2°47.903 5.3 351 20.7 102120 95
2006-07-18 07:40:52 51°16.547 2°47.883 5.3 352 20.7 102120 95
2006-07-18 07:40:58 51°16.555 2°47.854 5.5 351 20.7 102120 95
2006-07-18 07:41:03 51°16.562 2°47.83 5.6 352 20.7 102120 95
2006-07-18 07:41:08 51°16.569 2°47.806 5.7 353 20.7 102120 95
2006-07-18 07:41:13 51°16.576 2°47.782 5.7 352 20.7 102120 95
2006-07-18 07:41:17 51°16.582 2°47.763 5.9 353 20.7 102120 95
2006-07-18 07:41:22 51°16.59 2°47.739 5.6 351 20.7 102120 95
2006-07-18 07:41:28 51°16.599 2°47.71 5.5 352 20.7 102120 95
2006-07-18 07:41:33 51°16.607 2°47.687 5.4 352 20.7 102120 95
2006-07-18 07:41:38 51°16.615 2°47.663 5.7 353 20.6 102120 95
2006-07-18 07:41:43 51°16.623 2°47.639 5.7 352 20.6 102120 95
2006-07-18 07:41:48 51°16.63 2°47.615 5.6 352 20.7 102120 95
2006-07-18 07:41:53 51°16.638 2°47.591 5.3 278 20.7 102120 95
2006-07-18 07:41:58 51°16.645 2°47.567 5.3 353 20.6 102120 95
2006-07-18 07:42:02 51°16.651 2°47.548 5 354 20.6 102120 95
2006-07-18 07:42:08 51°16.66 2°47.518 5.3 353 20.6 102120 95
2006-07-18 07:42:13 51°16.666 2°47.494 4.9 278 20.6 102120 95
2006-07-18 07:42:18 51°16.673 2°47.469 5.2 352 20.6 102120 95
2006-07-18 07:42:23 51°16.678 2°47.444 4.9 352 20.6 102120 95
2006-07-18 07:42:28 51°16.684 2°47.419 5.3 353 20.6 102120 95
2006-07-18 07:42:32 51°16.689 2°47.399 5.1 352 20.6 102120 95
2006-07-18 07:42:38 51°16.696 2°47.368 5.1 349 20.6 102120 95
2006-07-18 07:42:43 51°16.701 2°47.343 5.2 349 20.6 102120 95
2006-07-18 07:42:47 51°16.706 2°47.322 5 347 20.6 102120 95
2006-07-18 07:42:52 51°16.711 2°47.297 5.2 349 20.6 102120 95
2006-07-18 07:42:57 51°16.717 2°47.272 5.1 348 20.6 102120 95
2006-07-18 07:43:02 51°16.722 2°47.246 5.4 277 20.6 102120 95
2006-07-18 07:43:07 51°16.728 2°47.221 5.3 349 20.6 102130 95
2006-07-18 07:43:13 51°16.736 2°47.19 5.3 346 20.6 102130 95
2006-07-18 07:43:18 51°16.742 2°47.165 5 348 20.6 102120 95
2006-07-18 07:43:23 51°16.748 2°47.14 5.3 278 20.6 102120 95
2006-07-18 07:43:28 51°16.754 2°47.115 5 348 20.6 102120 95
2006-07-18 07:43:33 51°16.76 2°47.089 5.4 278 20.6 102120 95
2006-07-18 07:43:38 51°16.766 2°47.064 5.4 347 20.6 102130 95
2006-07-18 07:43:43 51°16.771 2°47.038 5 277 20.6 102130 95
2006-07-18 07:43:48 51°16.777 2°47.013 4.8 347 20.6 102120 95
2006-07-18 07:43:53 51°16.782 2°46.987 4.9 278 20.6 102120 95
2006-07-18 07:43:57 51°16.787 2°46.967 4.8 348 20.6 102120 95
2006-07-18 07:44:00 51°16.79 2°46.952 5 276 20.6 102120 95
2006-07-18 07:44:08 51°16.799 2°46.911 4.9 348 20.6 102120 95
2006-07-18 07:44:13 51°16.804 2°46.886 5 -999 20.6 102120 95
2006-07-18 07:44:17 51°16.809 2°46.865 5.1 344 20.6 102130 95
2006-07-18 07:44:22 51°16.815 2°46.84 5.2 276 20.6 102130 95
2006-07-18 07:44:28 51°16.822 2°46.81 5.6 345 20.7 102130 95
2006-07-18 07:44:33 51°16.828 2°46.785 5.3 279 20.7 102130 95
2006-07-18 07:44:38 51°16.833 2°46.759 5.5 346 20.6 102130 95
2006-07-18 07:44:43 51°16.84 2°46.734 5.5 279 20.6 102130 95
2006-07-18 07:44:48 51°16.845 2°46.709 5.3 345 20.6 102130 95
2006-07-18 07:44:53 51°16.851 2°46.684 5.3 284 20.6 102130 95
2006-07-18 07:44:57 51°16.856 2°46.664 5.2 347 20.7 102130 95
2006-07-18 07:45:01 51°16.861 2°46.643 5.3 284 20.7 102130 95
2006-07-18 07:45:08 51°16.869 2°46.608 5 346 20.6 102130 95
2006-07-18 07:45:13 51°16.875 2°46.583 5 283 20.6 102130 95
2006-07-18 07:45:17 51°16.879 2°46.563 5 347 20.6 102130 95
2006-07-18 07:45:22 51°16.885 2°46.538 5 278 20.6 102130 95
2006-07-18 07:45:27 51°16.891 2°46.514 5 347 20.6 102120 95
2006-07-18 07:45:32 51°16.897 2°46.489 5.1 278 20.6 102120 95
2006-07-18 07:45:37 51°16.903 2°46.464 5.1 349 20.6 102130 95
2006-07-18 07:45:43 51°16.911 2°46.434 5.1 277 20.6 102130 95
2006-07-18 07:45:48 51°16.917 2°46.409 5.2 348 20.6 102130 95
2006-07-18 07:45:53 51°16.923 2°46.383 5.3 279 20.6 102130 95
2006-07-18 07:45:57 51°16.929 2°46.362 5.4 348 20.6 102130 95
2006-07-18 07:46:02 51°16.935 2°46.337 5.2 277 20.6 102130 95
2006-07-18 07:46:07 51°16.941 2°46.311 5.3 349 20.6 102120 95
2006-07-18 07:46:13 51°16.948 2°46.28 5.2 281 20.6 102120 95
2006-07-18 07:46:17 51°16.952 2°46.26 5.1 349 20.6 102130 95
2006-07-18 07:46:23 51°16.959 2°46.229 4.9 281 20.6 102130 95
2006-07-18 07:46:27 51°16.964 2°46.208 5.3 350 20.6 102130 95
2006-07-18 07:46:32 51°16.97 2°46.182 5.1 349 20.6 102130 95
2006-07-18 07:46:37 51°16.976 2°46.157 5.3 347 20.6 102130 95
2006-07-18 07:46:41 51°16.98 2°46.136 5.6 349 20.6 102130 95
2006-07-18 07:46:48 51°16.989 2°46.1 5.6 349 20.6 102120 95
2006-07-18 07:46:52 51°16.994 2°46.08 5.4 350 20.6 102120 95
2006-07-18 07:46:57 51°17.001 2°46.054 5.5 347 20.6 102120 95
2006-07-18 07:47:02 51°17.007 2°46.029 5.4 349 20.6 102120 95
2006-07-18 07:47:08 51°17.015 2°45.998 5.4 346 20.6 102130 95
2006-07-18 07:47:13 51°17.022 2°45.972 5 348 20.6 102130 95
2006-07-18 07:47:17 51°17.026 2°45.952 5.3 348 20.6 102120 95
2006-07-18 07:47:20 51°17.03 2°45.936 5.3 277 20.6 102120 95
2006-07-18 07:47:28 51°17.04 2°45.895 5.1 351 20.6 102120 95
2006-07-18 07:47:32 51°17.045 2°45.875 5.2 278 20.6 102120 95
2006-07-18 07:47:37 51°17.052 2°45.849 5.2 347 20.6 102130 95
2006-07-18 07:47:43 51°17.059 2°45.819 4.9 350 20.6 102130 95
2006-07-18 07:47:48 51°17.065 2°45.793 5.4 351 20.6 102130 95
2006-07-18 07:47:52 51°17.07 2°45.772 5.3 277 20.6 102130 95
2006-07-18 07:47:57 51°17.077 2°45.747 5.4 351 20.6 102130 95
2006-07-18 07:48:02 51°17.083 2°45.722 5.4 278 20.6 102130 95
2006-07-18 07:48:07 51°17.089 2°45.696 5.3 353 20.5 102130 95
2006-07-18 07:48:13 51°17.097 2°45.665 5.4 352 20.5 102130 95
2006-07-18 07:48:16 51°17.101 2°45.65 5.5 350 20.6 102130 95
2006-07-18 07:48:20 51°17.106 2°45.63 5.2 350 20.6 102130 95
2006-07-18 07:48:28 51°17.116 2°45.589 5.6 351 20.5 102130 95
2006-07-18 07:48:33 51°17.123 2°45.563 5.9 278 20.5 102130 95
2006-07-18 07:48:37 51°17.128 2°45.543 5.6 349 20.6 102130 95
2006-07-18 07:48:42 51°17.134 2°45.517 5.3 350 20.6 102130 95
2006-07-18 07:48:48 51°17.142 2°45.486 5.5 350 20.5 102130 95
2006-07-18 07:48:53 51°17.148 2°45.461 5.4 349 20.5 102130 95
2006-07-18 07:48:57 51°17.152 2°45.44 5.3 350 20.5 102120 95
2006-07-18 07:49:02 51°17.159 2°45.415 5.5 278 20.5 102120 95
2006-07-18 07:49:07 51°17.165 2°45.389 5.4 349 20.5 102130 95
2006-07-18 07:49:12 51°17.171 2°45.363 5.5 280 20.5 102130 95
2006-07-18 07:49:17 51°17.178 2°45.338 5.4 349 20.5 102130 95
2006-07-18 07:49:23 51°17.186 2°45.307 5.5 279 20.5 102130 95
2006-07-18 07:49:28 51°17.192 2°45.282 5.6 348 20.5 102120 95
2006-07-18 07:49:33 51°17.199 2°45.257 5.6 279 20.5 102120 95
2006-07-18 07:49:38 51°17.205 2°45.231 5 350 20.5 102130 95
2006-07-18 07:49:43 51°17.212 2°45.206 5.4 350 20.5 102130 95
2006-07-18 07:49:48 51°17.218 2°45.181 5.6 352 20.5 102120 95
2006-07-18 07:49:52 51°17.224 2°45.161 5.4 349 20.5 102120 95
2006-07-18 07:49:57 51°17.23 2°45.135 5.7 349 20.5 102120 95
2006-07-18 07:50:01 51°17.235 2°45.115 5.3 277 20.5 102120 95
2006-07-18 07:50:08 51°17.244 2°45.079 5.4 350 20.5 102120 95
2006-07-18 07:50:13 51°17.25 2°45.054 5.3 277 20.5 102120 95
2006-07-18 07:50:18 51°17.257 2°45.029 5.1 351 20.5 102130 95
2006-07-18 07:50:23 51°17.263 2°45.003 5.4 278 20.5 102130 95
2006-07-18 07:50:28 51°17.269 2°44.978 5.2 350 20.6 102130 95
2006-07-18 07:50:33 51°17.276 2°44.952 5.5 350 20.6 102130 95
2006-07-18 07:50:37 51°17.28 2°44.931 5.3 352 20.6 102120 95
2006-07-18 07:50:42 51°17.286 2°44.906 5.3 279 20.6 102120 95
2006-07-18 07:50:47 51°17.292 2°44.88 4.9 350 20.5 102120 95
2006-07-18 07:50:53 51°17.3 2°44.85 5.1 348 20.5 102120 95
2006-07-18 07:50:58 51°17.306 2°44.825 5.2 352 20.5 102120 95
2006-07-18 07:51:03 51°17.313 2°44.799 5.1 277 20.5 102120 95
2006-07-18 07:51:08 51°17.319 2°44.774 5.4 353 20.5 102120 95
2006-07-18 07:51:13 51°17.326 2°44.749 4.9 -999 20.5 102120 95
2006-07-18 07:51:17 51°17.331 2°44.728 5.4 352 20.5 102120 95
2006-07-18 07:51:23 51°17.339 2°44.698 5.2 279 20.5 102120 95
2006-07-18 07:51:28 51°17.346 2°44.673 5.1 351 20.5 102130 95
2006-07-18 07:51:32 51°17.351 2°44.652 5.2 352 20.5 102130 95
2006-07-18 07:51:36 51°17.356 2°44.632 5.3 351 20.5 102120 95
2006-07-18 07:51:43 51°17.365 2°44.596 5.4 353 20.5 102120 95
2006-07-18 07:51:48 51°17.372 2°44.571 5.3 351 20.5 102120 95
2006-07-18 07:51:53 51°17.379 2°44.546 5.1 351 20.5 102120 95
2006-07-18 07:51:58 51°17.385 2°44.521 5.6 351 20.5 102120 95
2006-07-18 07:52:03 51°17.393 2°44.496 5.9 276 20.5 102120 95
2006-07-18 07:52:08 51°17.4 2°44.471 5.6 352 20.5 102120 95
2006-07-18 07:52:13 51°17.407 2°44.446 5.9 350 20.5 102120 95
2006-07-18 07:52:17 51°17.413 2°44.426 5.9 351 20.5 102120 95
2006-07-18 07:52:20 51°17.417 2°44.411 5.5 351 20.5 102120 95
2006-07-18 07:52:28 51°17.428 2°44.371 5.6 350 20.5 102120 95
2006-07-18 07:52:33 51°17.435 2°44.346 5.8 276 20.5 102120 95
2006-07-18 07:52:36 51°17.439 2°44.33 5.8 351 20.5 102120 95
2006-07-18 07:52:43 51°17.449 2°44.295 5.5 279 20.5 102120 95
2006-07-18 07:52:47 51°17.455 2°44.275 5.4 350 20.5 102120 95
2006-07-18 07:52:53 51°17.463 2°44.245 5.6 277 20.5 102120 95
2006-07-18 07:52:57 51°17.469 2°44.225 5.5 349 20.5 102130 95
2006-07-18 07:53:01 51°17.474 2°44.204 5.6 352 20.5 102130 95
2006-07-18 07:53:08 51°17.484 2°44.169 5.4 352 20.5 102120 95
2006-07-18 07:53:13 51°17.491 2°44.144 5.5 354 20.5 102120 95
2006-07-18 07:53:17 51°17.496 2°44.124 5.5 354 20.5 102120 95
2006-07-18 07:53:20 51°17.501 2°44.109 5.4 352 20.5 102120 95
2006-07-18 07:53:28 51°17.512 2°44.069 5.4 352 20.5 102120 95
2006-07-18 07:53:33 51°17.519 2°44.044 5.4 353 20.5 102120 95
2006-07-18 07:53:38 51°17.526 2°44.018 5.4 355 20.4 102120 95
2006-07-18 07:53:43 51°17.534 2°43.994 5.5 353 20.4 102120 95
2006-07-18 07:53:48 51°17.541 2°43.968 5.6 353 20.5 102120 95
2006-07-18 07:53:53 51°17.548 2°43.943 5.5 354 20.5 102120 95
2006-07-18 07:53:57 51°17.553 2°43.923 5.9 352 20.4 102120 95
2006-07-18 07:54:02 51°17.56 2°43.898 5.7 352 20.4 102120 95
2006-07-18 07:54:07 51°17.567 2°43.873 5.9 352 20.4 102120 95
2006-07-18 07:54:13 51°17.575 2°43.843 5.7 351 20.4 102120 95
2006-07-18 07:54:18 51°17.582 2°43.818 5.4 351 20.4 102120 95
2006-07-18 07:54:23 51°17.589 2°43.792 5.9 352 20.4 102120 95
2006-07-18 07:54:28 51°17.595 2°43.767 5.6 354 20.5 102120 95
2006-07-18 07:54:33 51°17.603 2°43.742 5.5 350 20.5 102120 95
2006-07-18 07:54:37 51°17.608 2°43.722 6 352 20.5 102120 95
2006-07-18 07:54:42 51°17.616 2°43.698 6 351 20.5 102120 95
2006-07-18 07:54:47 51°17.623 2°43.673 5.9 353 20.5 102120 95
2006-07-18 07:54:53 51°17.632 2°43.644 5.8 351 20.5 102120 95
2006-07-18 07:54:57 51°17.639 2°43.624 5.9 351 20.4 102120 95
2006-07-18 07:55:00 51°17.644 2°43.609 5.9 351 20.4 102120 95
2006-07-18 07:55:06 51°17.653 2°43.58 6.1 349 20.5 102130 95
2006-07-18 07:55:12 51°17.663 2°43.551 6.1 278 20.5 102130 95
2006-07-18 07:55:17 51°17.671 2°43.526 6 349 20.4 102120 95
2006-07-18 07:55:23 51°17.68 2°43.497 6.3 278 20.4 102120 95
2006-07-18 07:55:28 51°17.688 2°43.472 5.9 352 20.4 102120 96
2006-07-18 07:55:33 51°17.695 2°43.448 5.9 349 20.4 102120 96
2006-07-18 07:55:37 51°17.701 2°43.428 5.8 352 20.4 102130 96
2006-07-18 07:55:43 51°17.709 2°43.398 5.8 351 20.4 102130 96
2006-07-18 07:55:48 51°17.717 2°43.374 5.8 350 20.4 102120 96
2006-07-18 07:55:52 51°17.723 2°43.354 5.8 353 20.4 102120 96
2006-07-18 07:55:58 51°17.732 2°43.325 5.8 352 20.4 102120 96
2006-07-18 07:56:03 51°17.74 2°43.301 6.3 353 20.4 102120 96
2006-07-18 07:56:08 51°17.748 2°43.276 6.2 354 20.4 102120 96
2006-07-18 07:56:12 51°17.754 2°43.257 5.9 -999 20.4 102120 96
2006-07-18 07:56:18 51°17.763 2°43.227 5.5 352 20.4 102120 96
2006-07-18 07:56:23 51°17.771 2°43.203 5.9 276 20.4 102120 96
2006-07-18 07:56:28 51°17.778 2°43.178 6 353 20.4 102120 96
2006-07-18 07:56:33 51°17.786 2°43.154 6.1 351 20.4 102120 96
2006-07-18 07:56:38 51°17.794 2°43.13 6 350 20.4 102120 96
2006-07-18 07:56:43 51°17.803 2°43.105 5.8 278 20.4 102120 96
2006-07-18 07:56:48 51°17.811 2°43.081 6.1 354 20.4 102120 96
2006-07-18 07:56:52 51°17.818 2°43.062 6 353 20.4 102120 96
2006-07-18 07:56:57 51°17.826 2°43.038 5.9 350 20.4 102120 96
2006-07-18 07:57:01 51°17.833 2°43.018 5.6 276 20.4 102120 96
2006-07-18 07:57:08 51°17.844 2°42.984 6.1 352 20.4 102120 96
2006-07-18 07:57:12 51°17.851 2°42.965 6.1 354 20.4 102120 96
2006-07-18 07:57:17 51°17.859 2°42.94 5.6 352 20.4 102120 96
2006-07-18 07:57:23 51°17.868 2°42.911 5.8 352 20.4 102120 96
2006-07-18 07:57:27 51°17.874 2°42.891 5.3 353 20.4 102120 96
2006-07-18 07:57:32 51°17.881 2°42.866 5.3 352 20.4 102120 96
2006-07-18 07:57:37 51°17.888 2°42.841 5.6 352 20.4 102120 96
2006-07-18 07:57:42 51°17.895 2°42.816 5.1 277 20.4 102120 96
2006-07-18 07:57:48 51°17.902 2°42.786 5.2 351 20.4 102120 96
2006-07-18 07:57:53 51°17.909 2°42.761 5.4 278 20.4 102120 96
2006-07-18 07:57:57 51°17.914 2°42.741 5.3 352 20.4 102120 96
2006-07-18 07:58:03 51°17.923 2°42.711 5.4 353 20.4 102120 96
2006-07-18 07:58:08 51°17.931 2°42.686 5.4 352 20.4 102120 96
2006-07-18 07:58:13 51°17.939 2°42.662 5.3 -999 20.4 102120 96
2006-07-18 07:58:18 51°17.946 2°42.638 5.7 351 20.4 102120 96
2006-07-18 07:58:23 51°17.954 2°42.613 5.7 352 20.4 102120 96
2006-07-18 07:58:28 51°17.962 2°42.589 5.3 350 20.3 102120 96
2006-07-18 07:58:33 51°17.97 2°42.564 5.8 277 20.3 102120 96
2006-07-18 07:58:37 51°17.977 2°42.545 5.7 353 20.3 102120 96
2006-07-18 07:58:43 51°17.986 2°42.516 5.4 277 20.3 102120 96
2006-07-18 07:58:48 51°17.994 2°42.491 5 352 20.3 102120 96
2006-07-18 07:58:53 51°18.002 2°42.467 5.7 352 20.3 102120 96
2006-07-18 07:58:58 51°18.01 2°42.442 5.2 350 20.4 102120 96
2006-07-18 07:59:03 51°18.018 2°42.417 5.8 277 20.4 102120 96
2006-07-18 07:59:08 51°18.026 2°42.393 5.8 350 20.3 102120 96
2006-07-18 07:59:12 51°18.032 2°42.373 5.6 352 20.3 102120 96
2006-07-18 07:59:17 51°18.04 2°42.349 5.7 349 20.3 102120 96
2006-07-18 07:59:23 51°18.051 2°42.32 5.3 352 20.3 102120 96
2006-07-18 07:59:28 51°18.059 2°42.296 5.6 351 20.3 102120 96
2006-07-18 07:59:33 51°18.068 2°42.272 5.5 351 20.3 102120 96
2006-07-18 07:59:38 51°18.076 2°42.248 5.1 351 20.3 102120 96
2006-07-18 07:59:42 51°18.083 2°42.229 5.5 277 20.3 102120 96
2006-07-18 07:59:47 51°18.092 2°42.205 5.8 350 20.3 102120 96
2006-07-18 07:59:53 51°18.102 2°42.176 5.4 354 20.3 102120 96
2006-07-18 07:59:58 51°18.111 2°42.152 5.6 352 20.3 102120 96
2006-07-18 08:00:02 51°18.118 2°42.132 5.5 352 20.3 102120 96
2006-07-18 08:00:08 51°18.128 2°42.104 5.6 351 20.3 102120 96
2006-07-18 08:00:12 51°18.135 2°42.084 5.7 -999 20.3 102120 96
2006-07-18 08:00:18 51°18.146 2°42.056 5.6 354 20.3 102120 96
2006-07-18 08:00:23 51°18.154 2°42.031 5.4 279 20.3 102120 96
2006-07-18 08:00:28 51°18.163 2°42.007 5.5 351 20.3 102120 96
2006-07-18 08:00:33 51°18.172 2°41.983 5.2 277 20.3 102120 96
2006-07-18 08:00:38 51°18.18 2°41.96 5.9 352 20.3 102120 96
2006-07-18 08:00:43 51°18.189 2°41.936 5.6 352 20.3 102120 96
2006-07-18 08:00:48 51°18.198 2°41.912 5.7 352 20.3 102120 96
2006-07-18 08:00:53 51°18.206 2°41.888 5.6 277 20.3 102120 96
2006-07-18 08:00:57 51°18.213 2°41.869 5.6 353 20.3 102130 96
2006-07-18 08:01:03 51°18.223 2°41.84 5.3 351 20.3 102130 96
2006-07-18 08:01:08 51°18.232 2°41.816 5.8 352 20.3 102120 96
2006-07-18 08:01:13 51°18.24 2°41.793 5.6 353 20.3 102120 96
2006-07-18 08:01:17 51°18.247 2°41.774 5.5 354 20.3 102120 96
2006-07-18 08:01:23 51°18.257 2°41.746 5.7 353 20.3 102120 96
2006-07-18 08:01:27 51°18.264 2°41.727 5.8 350 20.3 102120 96
2006-07-18 08:01:33 51°18.274 2°41.698 5.2 352 20.3 102120 96
2006-07-18 08:01:37 51°18.281 2°41.679 5.3 353 20.3 102120 96
2006-07-18 08:01:43 51°18.291 2°41.651 5.5 277 20.3 102120 96
2006-07-18 08:01:48 51°18.3 2°41.627 5.2 352 20.3 102130 96
2006-07-18 08:01:52 51°18.306 2°41.608 5.3 278 20.3 102130 96
2006-07-18 08:01:57 51°18.315 2°41.584 5.4 352 20.3 102120 96
2006-07-18 08:02:03 51°18.324 2°41.555 5.3 353 20.3 102120 96
2006-07-18 08:02:07 51°18.331 2°41.536 5.3 350 20.3 102120 96
2006-07-18 08:02:13 51°18.341 2°41.507 5.5 -999 20.3 102120 96
2006-07-18 08:02:18 51°18.348 2°41.483 5.3 351 20.3 102130 96
2006-07-18 08:02:22 51°18.355 2°41.464 5.3 352 20.3 102130 96
2006-07-18 08:02:27 51°18.363 2°41.44 5.4 350 20.3 102120 96
2006-07-18 08:02:32 51°18.371 2°41.416 5.4 279 20.3 102120 96
2006-07-18 08:02:37 51°18.38 2°41.392 5.4 348 20.3 102120 96
2006-07-18 08:02:43 51°18.39 2°41.363 5.4 278 20.3 102120 96
2006-07-18 08:02:47 51°18.396 2°41.343 5.7 351 20.4 102120 96
2006-07-18 08:02:52 51°18.405 2°41.319 5.6 351 20.4 102120 96
2006-07-18 08:02:57 51°18.414 2°41.295 6.2 352 20.4 102120 96
2006-07-18 08:03:03 51°18.424 2°41.266 5.7 351 20.4 102120 96
2006-07-18 08:03:08 51°18.433 2°41.243 5.8 352 20.4 102120 96
2006-07-18 08:03:12 51°18.44 2°41.224 5.3 353 20.4 102120 96
2006-07-18 08:03:17 51°18.449 2°41.2 5.4 351 20.3 102120 96
2006-07-18 08:03:23 51°18.459 2°41.172 5.7 279 20.3 102120 96
2006-07-18 08:03:27 51°18.466 2°41.153 5.1 351 20.3 102120 96
2006-07-18 08:03:33 51°18.476 2°41.124 5.7 277 20.3 102120 96
2006-07-18 08:03:37 51°18.483 2°41.105 5.3 352 20.3 102120 96
2006-07-18 08:03:43 51°18.492 2°41.076 5.7 351 20.3 102120 96
2006-07-18 08:03:47 51°18.499 2°41.057 5.7 352 20.3 102120 96
2006-07-18 08:03:53 51°18.508 2°41.029 5.3 353 20.3 102120 96
2006-07-18 08:03:58 51°18.516 2°41.005 5.3 347 20.3 102130 96
2006-07-18 08:04:03 51°18.523 2°40.981 5.6 352 20.3 102130 96
2006-07-18 08:04:08 51°18.531 2°40.957 5.4 351 20.3 102120 96
2006-07-18 08:04:12 51°18.538 2°40.939 5.8 -999 20.3 102120 96
2006-07-18 08:04:18 51°18.548 2°40.911 5.3 352 20.3 102130 96
2006-07-18 08:04:22 51°18.555 2°40.892 5.3 351 20.3 102130 96
2006-07-18 08:04:28 51°18.566 2°40.864 5.8 354 20.3 102120 96
2006-07-18 08:04:32 51°18.573 2°40.846 5.9 353 20.3 102120 96
2006-07-18 08:04:37 51°18.582 2°40.823 5.7 354 20.3 102120 96
2006-07-18 08:04:43 51°18.594 2°40.796 6 352 20.3 102120 96
2006-07-18 08:04:47 51°18.601 2°40.778 5.9 353 20.3 102120 96
2006-07-18 08:04:53 51°18.612 2°40.751 5.5 352 20.3 102120 96
2006-07-18 08:04:56 51°18.618 2°40.737 5.4 355 20.4 102120 96
2006-07-18 08:05:03 51°18.63 2°40.704 5.8 276 20.4 102120 96
2006-07-18 08:05:08 51°18.639 2°40.681 5.6 354 20.3 102130 96
2006-07-18 08:05:12 51°18.647 2°40.662 5.4 354 20.3 102130 96
2006-07-18 08:05:18 51°18.657 2°40.635 5.7 354 20.3 102130 96
2006-07-18 08:05:22 51°18.664 2°40.616 5.2 352 20.3 102130 96
2006-07-18 08:05:27 51°18.673 2°40.593 5.8 354 20.3 102120 96
2006-07-18 08:05:33 51°18.684 2°40.565 5.2 355 20.3 102120 96
2006-07-18 08:05:38 51°18.693 2°40.542 5.5 354 20.3 102120 96
2006-07-18 08:05:43 51°18.702 2°40.52 5.6 354 20.3 102120 96
2006-07-18 08:05:48 51°18.711 2°40.497 5.5 354 20.3 102130 95
2006-07-18 08:05:53 51°18.72 2°40.474 5.5 353 20.3 102130 95
2006-07-18 08:05:58 51°18.729 2°40.452 5.5 352 20.3 102120 95
2006-07-18 08:06:03 51°18.739 2°40.429 6.2 354 20.3 102120 95
2006-07-18 08:06:08 51°18.749 2°40.407 6.1 354 20.3 102120 96
2006-07-18 08:06:12 51°18.756 2°40.389 6.1 -999 20.3 102120 96
2006-07-18 08:06:17 51°18.766 2°40.367 5.9 352 20.3 102120 96
2006-07-18 08:06:22 51°18.775 2°40.344 5.4 352 20.3 102120 96
2006-07-18 08:06:27 51°18.785 2°40.321 6.1 352 20.3 102120 96
2006-07-18 08:06:32 51°18.794 2°40.297 5.8 354 20.3 102120 96
2006-07-18 08:06:38 51°18.805 2°40.269 5.9 352 20.3 102120 96
2006-07-18 08:06:42 51°18.813 2°40.251 5.8 354 20.3 102120 96
2006-07-18 08:06:48 51°18.824 2°40.223 5.7 352 20.3 102120 96
2006-07-18 08:06:52 51°18.832 2°40.204 5.2 353 20.3 102120 96
2006-07-18 08:06:57 51°18.841 2°40.18 5.7 353 20.3 102120 96
2006-07-18 08:07:03 51°18.851 2°40.153 5.5 352 20.3 102120 96
2006-07-18 08:07:07 51°18.858 2°40.134 5.8 357 20.3 102120 96
2006-07-18 08:07:13 51°18.87 2°40.105 5.5 354 20.3 102120 96
2006-07-18 08:07:18 51°18.879 2°40.082 5.5 355 20.3 102120 96
2006-07-18 08:07:23 51°18.888 2°40.059 5.7 353 20.3 102120 96
2006-07-18 08:07:27 51°18.896 2°40.04 5.2 353 20.3 102120 95
2006-07-18 08:07:32 51°18.906 2°40.016 5.6 355 20.3 102120 95
2006-07-18 08:07:37 51°18.915 2°39.993 5.6 355 20.3 102120 95
2006-07-18 08:07:43 51°18.926 2°39.965 5.4 354 20.3 102120 95
2006-07-18 08:07:48 51°18.936 2°39.941 5.4 354 20.3 102120 95
2006-07-18 08:07:53 51°18.945 2°39.918 5.4 353 20.3 102120 95
2006-07-18 08:07:58 51°18.954 2°39.894 5.5 351 20.3 102120 95
2006-07-18 08:08:03 51°18.962 2°39.871 5.3 353 20.3 102120 95
2006-07-18 08:08:08 51°18.971 2°39.847 5.2 353 20.3 102120 95
2006-07-18 08:08:13 51°18.979 2°39.824 5.2 -999 20.3 102120 95
2006-07-18 08:08:18 51°18.988 2°39.8 5.1 351 20.3 102120 95
2006-07-18 08:08:23 51°18.996 2°39.776 5.2 353 20.3 102120 95
2006-07-18 08:08:28 51°19.005 2°39.752 5.3 352 20.3 102120 95
2006-07-18 08:08:33 51°19.014 2°39.728 5.3 353 20.3 102120 95
2006-07-18 08:08:38 51°19.023 2°39.705 5.4 352 20.3 102120 95
2006-07-18 08:08:43 51°19.033 2°39.681 5.3 354 20.3 102120 95
2006-07-18 08:08:48 51°19.042 2°39.657 5.3 351 20.3 102120 95
2006-07-18 08:08:52 51°19.049 2°39.637 4.9 353 20.3 102120 95
2006-07-18 08:08:58 51°19.059 2°39.608 5.5 351 20.3 102120 95
2006-07-18 08:09:03 51°19.068 2°39.583 5.1 351 20.3 102120 95
2006-07-18 08:09:06 51°19.073 2°39.569 5.3 350 20.3 102120 95
2006-07-18 08:09:13 51°19.085 2°39.534 5.7 353 20.3 102120 95
2006-07-18 08:09:17 51°19.093 2°39.515 5.1 355 20.3 102130 95
2006-07-18 08:09:23 51°19.104 2°39.486 5.4 353 20.3 102130 95
2006-07-18 08:09:28 51°19.113 2°39.462 5.6 351 20.3 102120 95
2006-07-18 08:09:32 51°19.12 2°39.443 5.5 350 20.3 102120 95
2006-07-18 08:09:38 51°19.131 2°39.414 4.9 353 20.3 102130 95
2006-07-18 08:09:42 51°19.138 2°39.394 5.1 352 20.3 102130 95
2006-07-18 08:09:47 51°19.147 2°39.37 4.8 351 20.3 102120 95
2006-07-18 08:09:53 51°19.157 2°39.34 5.1 353 20.3 102120 95
2006-07-18 08:09:57 51°19.165 2°39.321 5.3 351 20.3 102120 95
2006-07-18 08:10:03 51°19.175 2°39.291 5.1 352 20.3 102120 95
2006-07-18 08:10:08 51°19.184 2°39.267 4.8 352 20.3 102120 95
2006-07-18 08:10:12 51°19.191 2°39.248 5.6 -999 20.3 102120 95
2006-07-18 08:10:18 51°19.202 2°39.218 5.2 350 20.3 102120 95
2006-07-18 08:10:22 51°19.21 2°39.199 5.5 350 20.3 102120 95
2006-07-18 08:10:28 51°19.22 2°39.17 5.4 352 20.3 102120 95
2006-07-18 08:10:32 51°19.228 2°39.15 5.3 353 20.3 102120 95
2006-07-18 08:10:37 51°19.237 2°39.126 5.4 351 20.3 102120 95
2006-07-18 08:10:43 51°19.249 2°39.097 5.7 352 20.3 102120 95
2006-07-18 08:10:47 51°19.256 2°39.078 5.5 353 20.3 102120 95
2006-07-18 08:10:53 51°19.268 2°39.049 5 355 20.3 102120 95
2006-07-18 08:10:56 51°19.273 2°39.034 5.1 351 20.3 102120 95
2006-07-18 08:11:03 51°19.285 2°39 5.1 352 20.3 102120 95
2006-07-18 08:11:08 51°19.294 2°38.975 4.7 350 20.3 102120 95
2006-07-18 08:11:12 51°19.3 2°38.955 4.7 352 20.3 102120 95
2006-07-18 08:11:18 51°19.309 2°38.925 4.4 352 20.3 102120 95
2006-07-18 08:11:23 51°19.316 2°38.9 4.8 353 20.3 102120 95
2006-07-18 08:11:28 51°19.324 2°38.875 4.8 350 20.3 102120 95
2006-07-18 08:11:32 51°19.33 2°38.855 4.9 351 20.3 102120 95
2006-07-18 08:11:38 51°19.34 2°38.825 5.2 351 20.3 102120 95
2006-07-18 08:11:43 51°19.349 2°38.801 5 351 20.3 102120 95
2006-07-18 08:11:48 51°19.358 2°38.776 5.5 352 20.3 102120 95
2006-07-18 08:11:53 51°19.367 2°38.752 5.1 353 20.3 102120 95
2006-07-18 08:11:58 51°19.376 2°38.727 5.4 352 20.3 102120 95
2006-07-18 08:12:03 51°19.385 2°38.703 5 277 20.3 102120 95
2006-07-18 08:12:08 51°19.394 2°38.679 5.4 350 20.3 102120 95
2006-07-18 08:12:12 51°19.402 2°38.66 5.1 -999 20.3 102120 95
2006-07-18 08:12:18 51°19.413 2°38.631 5.5 351 20.3 102120 95
2006-07-18 08:12:23 51°19.423 2°38.607 5.7 349 20.3 102120 95
2006-07-18 08:12:28 51°19.432 2°38.583 5.3 350 20.3 102130 95
2006-07-18 08:12:33 51°19.442 2°38.559 5.7 278 20.3 102130 95
2006-07-18 08:12:38 51°19.452 2°38.535 5.7 349 20.3 102130 95
2006-07-18 08:12:43 51°19.461 2°38.511 5.2 278 20.3 102120 95
2006-07-18 08:12:48 51°19.471 2°38.487 5.3 350 20.4 102130 95
2006-07-18 08:12:52 51°19.478 2°38.468 5.6 349 20.4 102130 95
2006-07-18 08:12:58 51°19.49 2°38.439 5.3 349 20.3 102120 95
2006-07-18 08:13:03 51°19.499 2°38.415 5.3 278 20.3 102120 95
2006-07-18 08:13:07 51°19.507 2°38.395 5.5 348 20.3 102120 95
2006-07-18 08:13:12 51°19.517 2°38.371 5.3 278 20.3 102120 95
2006-07-18 08:13:18 51°19.528 2°38.342 5.8 350 20.3 102130 95
2006-07-18 08:13:23 51°19.537 2°38.317 5.5 350 20.3 102130 95
2006-07-18 08:13:28 51°19.546 2°38.293 5.4 351 20.3 102120 95
2006-07-18 08:13:32 51°19.554 2°38.274 5.5 351 20.3 102120 95
2006-07-18 08:13:37 51°19.563 2°38.249 4.9 351 20.3 102120 95
2006-07-18 08:13:43 51°19.574 2°38.221 5.3 277 20.3 102120 95
2006-07-18 08:13:47 51°19.581 2°38.201 5.2 352 20.3 102130 95
2006-07-18 08:13:53 51°19.592 2°38.173 5.1 279 20.3 102130 95
2006-07-18 08:13:58 51°19.601 2°38.149 5.2 352 20.4 102120 95
2006-07-18 08:14:03 51°19.611 2°38.126 4.8 352 20.4 102120 95
2006-07-18 08:14:08 51°19.62 2°38.102 5.1 350 20.3 102130 95
2006-07-18 08:14:13 51°19.629 2°38.078 5.1 -999 20.3 102130 95
2006-07-18 08:14:16 51°19.635 2°38.064 4.8 351 20.3 102130 95
2006-07-18 08:14:23 51°19.647 2°38.031 5.4 352 20.3 102130 95
2006-07-18 08:14:27 51°19.654 2°38.011 5.5 353 20.3 102120 95
2006-07-18 08:14:33 51°19.665 2°37.983 5.1 350 20.3 102120 95
2006-07-18 08:14:37 51°19.672 2°37.964 5 351 20.3 102130 95
2006-07-18 08:14:43 51°19.683 2°37.935 5.2 352 20.3 102130 95
2006-07-18 08:14:46 51°19.688 2°37.921 5.5 353 20.3 102130 95
2006-07-18 08:14:53 51°19.702 2°37.888 5.2 354 20.3 102130 95
2006-07-18 08:14:57 51°19.71 2°37.869 5.6 351 20.3 102130 95
2006-07-18 08:15:03 51°19.722 2°37.842 5.6 276 20.3 102130 95
2006-07-18 08:15:08 51°19.732 2°37.819 5.6 349 20.3 102130 95
2006-07-18 08:15:13 51°19.742 2°37.796 5.7 350 20.3 102130 95
2006-07-18 08:15:18 51°19.752 2°37.773 5.7 351 20.3 102120 95
2006-07-18 08:15:23 51°19.762 2°37.75 5.3 352 20.3 102120 95
2006-07-18 08:15:28 51°19.772 2°37.727 5.8 352 20.3 102120 95
2006-07-18 08:15:32 51°19.779 2°37.709 5.3 353 20.3 102120 95
2006-07-18 08:15:37 51°19.789 2°37.686 5.2 351 20.3 102130 95
2006-07-18 08:15:43 51°19.801 2°37.658 5.6 350 20.3 102130 95
2006-07-18 08:15:47 51°19.808 2°37.64 5.3 352 20.3 102120 95
2006-07-18 08:15:52 51°19.818 2°37.617 5.8 276 20.3 102120 95
2006-07-18 08:15:57 51°19.828 2°37.594 5.6 347 20.3 102130 95
2006-07-18 08:16:03 51°19.84 2°37.566 5.4 351 20.3 102130 95
2006-07-18 08:16:07 51°19.848 2°37.548 5.6 349 20.3 102130 95
2006-07-18 08:16:12 51°19.857 2°37.524 5.7 -999 20.3 102130 95
2006-07-18 08:16:17 51°19.867 2°37.501 5.8 351 20.3 102130 95
2006-07-18 08:16:23 51°19.878 2°37.475 5.3 352 20.3 102130 95
2006-07-18 08:16:28 51°19.887 2°37.454 5.2 353 20.3 102130 95
2006-07-18 08:16:32 51°19.894 2°37.439 4.8 352 20.3 102130 95
2006-07-18 08:16:38 51°19.904 2°37.416 5 353 20.3 102130 95
2006-07-18 08:16:43 51°19.912 2°37.398 4.8 354 20.3 102130 95
2006-07-18 08:16:48 51°19.92 2°37.38 4.7 353 20.3 102130 95
2006-07-18 08:16:52 51°19.926 2°37.367 4.6 358 20.3 102130 95
2006-07-18 08:16:58 51°19.934 2°37.348 4.3 359 20.3 102130 95
2006-07-18 08:17:03 51°19.941 2°37.333 3.9 360 20.3 102130 95
2006-07-18 08:17:08 51°19.947 2°37.319 4 -999 20.3 102130 95
2006-07-18 08:17:13 51°19.953 2°37.306 3.9 2 20.3 102130 95
2006-07-18 08:17:17 51°19.958 2°37.296 3.6 3 20.3 102130 95
2006-07-18 08:17:22 51°19.964 2°37.283 3.4 4 20.3 102130 95
2006-07-18 08:17:26 51°19.968 2°37.274 3.4 8 20.3 102130 95
2006-07-18 08:17:32 51°19.974 2°37.26 3.3 8 20.3 102130 95
2006-07-18 08:17:37 51°19.979 2°37.25 3.4 8 20.3 102130 95
2006-07-18 08:17:42 51°19.984 2°37.239 2.9 16 20.3 102130 95
2006-07-18 08:17:48 51°19.989 2°37.228 3 16 20.3 102130 95
2006-07-18 08:17:52 51°19.992 2°37.221 2.7 19 20.3 102130 95
2006-07-18 08:17:58 51°19.996 2°37.211 2.9 20 20.3 102130 95
2006-07-18 08:18:03 51°19.998 2°37.203 3 28 20.3 102130 95
2006-07-18 08:18:08 51°20.001 2°37.197 3 37 20.3 102130 95
2006-07-18 08:18:13 51°20.002 2°37.192 2.4 -999 20.3 102130 95
2006-07-18 08:18:16 51°20.003 2°37.19 2.5 29 20.3 102130 95
2006-07-18 08:18:23 51°20.005 2°37.186 2.6 76 20.3 102130 95
2006-07-18 08:18:26 51°20.005 2°37.186 2.6 35 20.3 102140 95
2006-07-18 08:18:32 51°20.007 2°37.185 3.5 82 20.3 102140 95
2006-07-18 08:18:38 51°20.008 2°37.187 3.1 34 20.3 102140 95
2006-07-18 08:18:43 51°20.009 2°37.188 3.2 77 20.3 102140 95
2006-07-18 08:18:47 51°20.01 2°37.19 3.3 35 20.3 102140 95
2006-07-18 08:18:53 51°20.012 2°37.192 2.5 77 20.3 102140 95
2006-07-18 08:18:57 51°20.012 2°37.193 2.6 28 20.3 102130 95
2006-07-18 08:19:02 51°20.014 2°37.194 2.1 77 20.3 102130 95
2006-07-18 08:19:08 51°20.015 2°37.196 2.4 33 20.3 102140 95
2006-07-18 08:19:12 51°20.016 2°37.197 1.8 84 20.3 102140 95
2006-07-18 08:19:18 51°20.017 2°37.199 2.1 38 20.4 102140 95
2006-07-18 08:19:23 51°20.019 2°37.2 1.8 82 20.4 102140 95
2006-07-18 08:19:29 51°20.02 2°37.202 1.6 34 20.4 102140 96
2006-07-18 08:19:33 51°20.021 2°37.203 2.4 84 20.4 102140 96
2006-07-18 08:19:39 51°20.022 2°37.205 2.7 39 20.5 102140 96
2006-07-18 08:19:43 51°20.023 2°37.206 2.1 83 20.5 102140 96
2006-07-18 08:19:48 51°20.025 2°37.207 2.6 20 20.6 102140 96
2006-07-18 08:19:53 51°20.026 2°37.208 2.5 81 20.6 102140 96
2006-07-18 08:19:58 51°20.027 2°37.209 2.9 33 20.6 102140 96
2006-07-18 08:20:02 51°20.028 2°37.21 2.1 82 20.6 102140 96
2006-07-18 08:20:09 51°20.03 2°37.212 2.7 23 20.7 102140 96
2006-07-18 08:20:12 51°20.03 2°37.212 2.6 77 20.7 102140 96
2006-07-18 08:20:19 51°20.032 2°37.214 2.8 42 20.7 102140 96
2006-07-18 08:20:24 51°20.033 2°37.215 2 83 20.7 102140 96
2006-07-18 08:20:29 51°20.034 2°37.216 2.3 40 20.7 102140 96
2006-07-18 08:20:33 51°20.035 2°37.217 2.1 81 20.7 102140 96
2006-07-18 08:20:37 51°20.036 2°37.218 2.3 42 20.8 102140 96
2006-07-18 08:20:43 51°20.037 2°37.219 2.1 78 20.8 102140 96
2006-07-18 08:20:48 51°20.038 2°37.22 2.1 39 20.9 102140 95
2006-07-18 08:20:53 51°20.039 2°37.221 1.7 74 20.9 102140 95
2006-07-18 08:20:57 51°20.04 2°37.222 2.2 29 20.9 102140 95
2006-07-18 08:21:03 51°20.041 2°37.223 1.7 82 20.9 102140 95
2006-07-18 08:21:08 51°20.043 2°37.224 1.9 38 21 102140 95
2006-07-18 08:21:13 51°20.043 2°37.225 2 76 21 102140 95
2006-07-18 08:21:16 51°20.044 2°37.225 2.5 21 21.1 102140 95
2006-07-18 08:21:23 51°20.045 2°37.227 1.8 82 21.1 102140 95
2006-07-18 08:21:28 51°20.046 2°37.227 1.9 40 21.2 102140 95
2006-07-18 08:21:33 51°20.047 2°37.228 1.2 82 21.2 102140 95
2006-07-18 08:21:36 51°20.047 2°37.228 2 38 21.3 102140 95
2006-07-18 08:21:42 51°20.048 2°37.229 2 83 21.3 102140 95
2006-07-18 08:21:47 51°20.049 2°37.229 1.8 35 21.3 102140 95
2006-07-18 08:21:53 51°20.05 2°37.23 2 80 21.3 102140 95
2006-07-18 08:21:57 51°20.05 2°37.23 2.5 34 21.3 102140 94
2006-07-18 08:22:02 51°20.051 2°37.23 2.9 83 21.3 102140 94
2006-07-18 08:22:08 51°20.051 2°37.231 3 39 21.4 102140 94
2006-07-18 08:22:13 51°20.052 2°37.231 2.6 -999 21.4 102140 94
2006-07-18 08:22:16 51°20.052 2°37.231 3.1 34 21.4 102140 93
2006-07-18 08:22:23 51°20.052 2°37.231 2.7 83 21.4 102140 93
2006-07-18 08:22:28 51°20.052 2°37.231 3.4 34 21.4 102140 93
2006-07-18 08:22:33 51°20.052 2°37.23 3.1 77 21.4 102140 93
2006-07-18 08:22:38 51°20.052 2°37.23 2.8 33 21.4 102140 92
2006-07-18 08:22:43 51°20.052 2°37.23 3.1 83 21.4 102140 92
2006-07-18 08:22:47 51°20.052 2°37.23 3.1 34 21.3 102140 92
2006-07-18 08:22:52 51°20.052 2°37.229 2.8 82 21.3 102140 92
2006-07-18 08:22:58 51°20.052 2°37.229 3.4 36 21.3 102140 92
2006-07-18 08:23:03 51°20.052 2°37.228 2.9 82 21.3 102140 92
2006-07-18 08:23:07 51°20.052 2°37.228 3.4 33 21.3 102140 92
2006-07-18 08:23:12 51°20.052 2°37.227 2.9 81 21.3 102140 92
2006-07-18 08:23:17 51°20.051 2°37.227 3.1 29 21.3 102140 91
2006-07-18 08:23:23 51°20.051 2°37.227 2.8 82 21.3 102140 91
2006-07-18 08:23:27 51°20.051 2°37.227 3.1 36 21.3 102140 91
2006-07-18 08:23:33 51°20.05 2°37.226 3.4 77 21.3 102140 91
2006-07-18 08:23:38 51°20.05 2°37.226 3.4 32 21.3 102140 91
2006-07-18 08:23:43 51°20.05 2°37.225 3.1 80 21.3 102140 91
2006-07-18 08:23:48 51°20.05 2°37.225 3.6 35 21.2 102140 91
2006-07-18 08:23:52 51°20.049 2°37.225 3 84 21.2 102140 91
2006-07-18 08:23:56 51°20.049 2°37.225 3.2 38 21.2 102140 91
2006-07-18 08:24:02 51°20.049 2°37.225 3.3 84 21.2 102140 91
2006-07-18 08:24:08 51°20.048 2°37.224 2.8 41 21.2 102140 91
2006-07-18 08:24:13 51°20.048 2°37.225 2.8 -999 21.2 102140 91
2006-07-18 08:24:18 51°20.048 2°37.224 2.9 41 21.2 102140 91
2006-07-18 08:24:23 51°20.047 2°37.225 2.7 84 21.2 102140 91
2006-07-18 08:24:28 51°20.047 2°37.224 2.8 41 21.2 102140 91
2006-07-18 08:24:33 51°20.047 2°37.225 2.9 85 21.2 102140 91
2006-07-18 08:24:38 51°20.046 2°37.225 3.1 35 21.2 102140 91
2006-07-18 08:24:42 51°20.046 2°37.225 2.6 78 21.2 102140 91
2006-07-18 08:24:48 51°20.046 2°37.225 2.7 36 21.2 102140 91
2006-07-18 08:24:52 51°20.046 2°37.225 3.4 281 21.2 102140 91
2006-07-18 08:24:58 51°20.045 2°37.225 3.3 34 21.2 102140 91
2006-07-18 08:25:03 51°20.045 2°37.225 3.1 82 21.2 102140 91
2006-07-18 08:25:07 51°20.045 2°37.225 3.4 35 21.2 102140 91
2006-07-18 08:25:12 51°20.045 2°37.225 2.9 81 21.2 102140 91
2006-07-18 08:25:17 51°20.045 2°37.225 3.3 10 21.2 102140 91
2006-07-18 08:25:22 51°20.044 2°37.225 3.3 81 21.2 102140 91
2006-07-18 08:25:28 51°20.044 2°37.225 2.8 33 21.2 102140 91
2006-07-18 08:25:33 51°20.044 2°37.225 3 82 21.2 102140 91
2006-07-18 08:25:37 51°20.044 2°37.225 3.3 22 21.1 102140 91
2006-07-18 08:25:41 51°20.044 2°37.225 2.9 79 21.1 102140 91
2006-07-18 08:25:47 51°20.044 2°37.225 3.3 22 21.1 102140 91
2006-07-18 08:25:52 51°20.044 2°37.225 3.4 84 21.1 102140 91
2006-07-18 08:25:57 51°20.044 2°37.225 3.4 24 21.1 102140 91
2006-07-18 08:26:02 51°20.044 2°37.225 2.8 78 21.1 102140 91
2006-07-18 08:26:07 51°20.044 2°37.225 3.3 34 21.1 102140 91
2006-07-18 08:26:13 51°20.044 2°37.225 2.9 283 21.1 102140 91
2006-07-18 08:26:17 51°20.044 2°37.225 3.2 33 21.1 102140 91
2006-07-18 08:26:23 51°20.043 2°37.225 3.5 75 21.1 102140 91
2006-07-18 08:26:28 51°20.043 2°37.225 3.4 270 21.1 102140 91